Regional Weather Roundup
Issued by NWS

Home | Current Version | Previous Version | Text Only | Print | Product List | Glossary On
Versions: 1 2 3 4 5 6 7 8 9 10 11 12 13 14 15 16 17 18 19 20 21 22 23 24 25 26 27 28 29 30 31 32 33 34 35 36 37 38 39 40 41 42 43 44 45 46 47 48 49 50
000
ASUS45 KABQ 282010
RWRNM
WEATHER ROUNDUP FOR NEW MEXICO
NATIONAL WEATHER SERVICE ALBUQUERQUE NM
100 PM MST SAT FEB 28 2015

NOTE: "FAIR" MEANS FEW OR NO CLOUDS BELOW 12,000 FEET AGL WITH NO
       SIGNIFICANT WEATHER OR OBSTRUCTIONS TO VISION.

      THIS PRODUCT IS RELEASED AS TWO VERSIONS.  ONE VERSION NEAR
      THE TOP OF THE HOUR CONTAINING PRELIMINARY DATA FROM ALBUQUERQUE
      AND OTHER STATIONS.  A FINAL VERSION WITH ADDITIONAL DATA IS
      ISSUED ABOUT 10 MINUTES AFTER THE HOUR.

NMZ501-503-504-510>518-282100-
NORTHWEST PLATEAU/NORTHCENTRAL MOUNTAINS

CITY           SKY/WX    TMP DP  RH WIND       PRES   REMARKS
FARMINGTON     CLOUDY    33  30  88 E12       29.80F WCI  24
LOS ALAMOS     CLOUDY    27  25  91 S12       29.88S WCI  17
SANTA FE       CLOUDY    29  22  75 SE8       29.89F WCI  21
TAOS           CLOUDY    25  18  74 CALM      29.88F
ANGEL FIRE     LGT SNOW  29  26  89 CALM      29.84S

$$
NMZ402-403-502-505>509-282100-
WESTCENTRAL MOUNTAINS/SOUTHWEST MOUNTAINS

CITY           SKY/WX    TMP DP  RH WIND       PRES   REMARKS
GALLUP         LGT RAIN  39  36  89 S12       29.80S FOG     WCI  32
GRANTS         CLOUDY    32  27  83 SE13G18   29.86S WCI  22
SILVER CITY    PTSUNNY   57  32  38 W16G26    29.93F

$$
NMZ407-409-411-412-282100-
SOUTHERN DESERTS

CITY           SKY/WX    TMP DP  RH WIND       PRES   REMARKS
LORDSBURG      FAIR      63  34  34 SW10G16   29.89F
DEMING         SUNNY     58  29  33 S8        29.91F
LAS CRUCES     SUNNY     55  28  34 SE10G17   29.94F
HOLLOMAN AFB   MOSUNNY   52  27  38 S13       29.94F
ALAMOGORDO     MOSUNNY   54  28  37 S12       29.96F
T OR C         PTSUNNY   54  30  40 S18       29.88F

$$
NMZ519>523-282100-
CENTRAL VALLEYS/CENTRAL HIGHLANDS

CITY           SKY/WX    TMP DP  RH WIND       PRES   REMARKS
ALBUQUERQUE    PTSUNNY   33  24  69 NW5       29.93F WCI  29
DOUBLE EAGLE   PTSUNNY   28  21  74 NE5       29.92F WCI  23
MORIARTY ARPT  MOCLDY    32  24  74 SW3       29.91F
CLINES CORNERS NOT AVBL
BELEN          FAIR      38  31  73 CALM      29.91F
SOCORRO          N/A     48  31  52 SE14      29.88F

$$
NMZ524>526-539-540-282100-
SOUTHCENTRAL MOUNTAINS

CITY           SKY/WX    TMP DP  RH WIND       PRES   REMARKS
RUIDOSO        SUNNY     48  30  49 SW29G41   29.92F

$$
NMZ527>531-282100-
NORTHEAST HIGHLANDS/NORTHEAST PLAINS

CITY           SKY/WX    TMP DP  RH WIND       PRES   REMARKS
LAS VEGAS      PTSUNNY   23  20  88 S17       29.86F WCI   9
RATON          CLOUDY    20  11  68 W5        29.87F WCI  13
CLAYTON        PTSUNNY   22  15  75 SW15      29.96F WCI   9

$$
NMZ532>537-282100-
EASTCENTRAL PLAINS

CITY           SKY/WX    TMP DP  RH WIND       PRES   REMARKS
TUCUMCARI      CLOUDY    25  20  81 SW16      30.02F WCI  12
CANNON AFB     CLOUDY    22  20  94 SW13      30.03F WCI  10
CLOVIS AIRPORT CLOUDY    19  18  93 SW13      30.05F WCI   7

$$
NMZ028-029-538-282100-
SOUTHEAST PLAINS

CITY           SKY/WX    TMP DP  RH WIND       PRES   REMARKS
ROSWELL        CLOUDY    26  21  81 S10       30.07F WCI  16
ARTESIA        CLOUDY    27  27 100 S12G17    30.09F WCI  16
CARLSBAD       CLOUDY    30  24  78 SE12      30.09F WCI  20
HOBBS          CLOUDY    27  27 100 SE7       30.10F WCI  19


$$



USA.gov is the U.S. government's official web portal to all federal, state and local government web resources and services.